Weather History for Salmon, ID

Change the Weather History Date:

Sunday, January 19, 2014

  Actual Average Record
Temperature  
Mean Temperature 20 °F -  
Max Temperature 32 °F 25 °F 49 °F (1972)
Min Temperature 8 °F 13 °F -25 °F (1984)
Degree Days  
Heating Degree Days 45    
Moisture  
Dew Point 14 °F    
Average Humidity 83    
Maximum Humidity 100    
Minimum Humidity 60    
Precipitation  
Precipitation 0.00 in - - ()
Sea Level Pressure  
Sea Level Pressure 30.26 in    
Wind  
Wind Speed 1 mph (NE)    
Max Wind Speed 6 mph    
Max Gust Speed -    
Visibility 10 miles    
Events      
Averages and records for this station are not official NWS values.
T = Trace of Precipitation, MM = Missing Value Source: NWS Daily Summary

Daily Weather History Graph

Daily Weather History Graph

Search for Another Location

Airport:

Trip Planner

Search our weather history database for the weather conditions in past years. The results will help you decide how hot, cold, wet, or windy it might be!

Date:

Astronomy

Jan. 19, 2014 Rise Set
Actual Time 8:07 AM MST 5:25 PM MST
Civil Twilight 7:35 AM MST 5:57 PM MST
Nautical Twilight 6:59 AM MST 6:33 PM MST
Astronomical Twilight 6:24 AM MST 7:08 PM MST
Moon 9:19 PM MST (1/19) 9:29 AM MST (1/19)
Length of Visible Light 10h 22m
Length of Day
9h 17m
Waning Gibbous, 89% of the Moon is Illuminated
Jan 19
Waning Gibbous
Jan 23
Last Quarter
Jan 30
New
Feb 6
First Quarter
Feb 14
Full

Hourly Weather History & Observations

Time (MST) Temp. Windchill Dew Point Humidity Pressure Visibility Wind Dir Wind Speed Gust Speed Precip Events Conditions
12:15 AM 15.8 °F - 14.0 °F 93% 30.31 in 10.0 mi Calm Calm - N/A   Clear
12:35 AM 15.8 °F - 14.0 °F 93% 30.31 in 10.0 mi Calm Calm - N/A   Clear
12:55 AM 14.0 °F - 12.2 °F 93% 30.30 in 10.0 mi Calm Calm - N/A   Clear
1:15 AM 14.0 °F - 10.4 °F 86% 30.30 in 10.0 mi Calm Calm - N/A   Clear
1:35 AM 14.0 °F - 10.4 °F 86% 30.29 in 10.0 mi Calm Calm - N/A   Clear
1:55 AM 14.0 °F - 10.4 °F 86% 30.29 in 10.0 mi Calm Calm - N/A   Clear
2:15 AM 14.0 °F - 10.4 °F 86% 30.29 in 10.0 mi Calm Calm - N/A   Clear
2:35 AM 14.0 °F - 10.4 °F 86% 30.30 in 10.0 mi Calm Calm - N/A   Clear
2:55 AM 12.2 °F - 10.4 °F 92% 30.30 in 10.0 mi Calm Calm - N/A   Clear
3:15 AM 12.2 °F - 12.2 °F 100% 30.30 in 10.0 mi Calm Calm - N/A   Clear
3:35 AM 12.2 °F 6.1 °F 10.4 °F 92% 30.29 in 10.0 mi SE 3.5 mph - N/A   Clear
3:55 AM 12.2 °F - 6.8 °F 79% 30.29 in 10.0 mi Calm Calm - N/A   Clear
4:15 AM 12.2 °F - 6.8 °F 79% 30.29 in 10.0 mi Calm Calm - N/A   Clear
4:35 AM 12.2 °F - 8.6 °F 85% 30.29 in 10.0 mi Calm Calm - N/A   Clear
4:55 AM 10.4 °F - 8.6 °F 92% 30.29 in 10.0 mi Calm Calm - N/A   Clear
5:15 AM 10.4 °F - 6.8 °F 85% 30.30 in 10.0 mi Calm Calm - N/A   Clear
5:35 AM 10.4 °F - 6.8 °F 85% 30.30 in 10.0 mi Calm Calm - N/A   Clear
5:55 AM 12.2 °F - 6.8 °F 79% 30.31 in 10.0 mi Calm Calm - N/A   Clear
6:15 AM 10.4 °F - 6.8 °F 85% 30.31 in 10.0 mi Calm Calm - N/A   Clear
6:35 AM 10.4 °F - 6.8 °F 85% 30.31 in 10.0 mi Calm Calm - N/A   Clear
6:55 AM 10.4 °F - 6.8 °F 85% 30.31 in 10.0 mi Calm Calm - N/A   Clear
7:15 AM 10.4 °F - 8.6 °F 92% 30.30 in 10.0 mi Calm Calm - N/A   Clear
7:35 AM 10.4 °F - 8.6 °F 92% 30.30 in 10.0 mi Calm Calm - N/A   Clear
7:55 AM 12.2 °F - 10.4 °F 92% 30.30 in 10.0 mi Calm Calm - N/A   Clear
8:15 AM 8.6 °F - 3.2 °F 79% 30.30 in 9.0 mi Calm Calm - N/A   Clear
8:35 AM 10.4 °F - 10.4 °F 100% 30.29 in 10.0 mi Calm Calm - N/A   Clear
8:55 AM 8.6 °F - 8.6 °F 100% 30.29 in 10.0 mi Calm Calm - N/A   Clear
9:15 AM 10.4 °F - 8.6 °F 92% 30.29 in 10.0 mi Calm Calm - N/A   Partly Cloudy
9:35 AM 12.2 °F - 10.4 °F 92% 30.30 in 8.0 mi Calm Calm - N/A   Mostly Cloudy
9:55 AM 15.8 °F 7.2 °F 14.0 °F 93% 30.30 in 9.0 mi SSW 5.8 mph - N/A   Partly Cloudy
10:15 AM 15.8 °F - 15.8 °F 100% 30.29 in 8.0 mi Calm Calm - N/A   Clear
10:35 AM 17.6 °F - 15.8 °F 93% 30.29 in 10.0 mi Calm Calm - N/A   Clear
10:55 AM 19.4 °F - 17.6 °F 93% 30.29 in 10.0 mi Calm Calm - N/A   Clear
11:15 AM 19.4 °F - 17.6 °F 93% 30.28 in 10.0 mi Calm Calm - N/A   Clear
11:35 AM 21.2 °F - 17.6 °F 86% 30.27 in 10.0 mi Calm Calm - N/A   Clear
11:55 AM 21.2 °F 14.9 °F 17.6 °F 86% 30.26 in 10.0 mi North 4.6 mph - N/A   Clear
12:15 PM 21.2 °F 14.9 °F 19.4 °F 93% 30.26 in 10.0 mi North 4.6 mph - N/A   Clear
12:35 PM 23.0 °F 18.4 °F 17.6 °F 80% 30.24 in 10.0 mi NNW 3.5 mph - N/A   Clear
12:55 PM 24.8 °F 20.5 °F 17.6 °F 74% 30.23 in 10.0 mi NNW 3.5 mph - N/A   Clear
1:15 PM 24.8 °F - 19.4 °F 80% 30.22 in 10.0 mi Calm Calm - N/A   Clear
1:35 PM 26.6 °F - 19.4 °F 74% 30.20 in 10.0 mi Calm Calm - N/A   Clear
1:55 PM 26.6 °F - 17.6 °F 69% 30.20 in 10.0 mi Calm Calm - N/A   Clear
2:15 PM 26.6 °F - 17.6 °F 69% 30.19 in 10.0 mi Calm Calm - N/A   Clear
2:35 PM 28.4 °F - 17.6 °F 64% 30.18 in 10.0 mi Calm Calm - N/A   Clear
2:55 PM 28.4 °F - 19.4 °F 69% 30.18 in 10.0 mi Calm Calm - N/A   Clear
3:15 PM 28.4 °F 24.6 °F 17.6 °F 64% 30.17 in 10.0 mi NW 3.5 mph - N/A   Clear
3:35 PM 30.2 °F - 19.4 °F 64% 30.17 in 10.0 mi Calm Calm - N/A   Clear
3:55 PM 30.2 °F - 19.4 °F 64% 30.17 in 10.0 mi Calm Calm - N/A   Clear
4:15 PM 30.2 °F - 17.6 °F 60% 30.17 in 10.0 mi Calm Calm - N/A   Clear
4:35 PM 32.0 °F - 19.4 °F 60% 30.18 in 10.0 mi Calm Calm - N/A   Clear
4:55 PM 30.2 °F - 17.6 °F 60% 30.18 in 10.0 mi Calm Calm - N/A   Clear
5:15 PM 28.4 °F - 17.6 °F 64% 30.18 in 10.0 mi Calm Calm - N/A   Clear
5:35 PM 26.6 °F - 17.6 °F 69% 30.19 in 10.0 mi Calm Calm - N/A   Clear
5:55 PM 23.0 °F 18.4 °F 17.6 °F 80% 30.19 in 10.0 mi ESE 3.5 mph - N/A   Clear
6:15 PM 23.0 °F - 15.8 °F 74% 30.20 in 10.0 mi Calm Calm - N/A   Clear
6:35 PM 21.2 °F 16.4 °F 17.6 °F 86% 30.21 in 10.0 mi SE 3.5 mph - N/A   Clear
6:55 PM 23.0 °F 15.8 °F 17.6 °F 80% 30.21 in 10.0 mi South 5.8 mph - N/A   Clear
7:15 PM 23.0 °F 18.4 °F 17.6 °F 80% 30.21 in 10.0 mi SE 3.5 mph - N/A   Clear
7:35 PM 23.0 °F - 17.6 °F 80% 30.20 in 10.0 mi Calm Calm - N/A   Clear
7:55 PM 21.2 °F - 17.6 °F 86% 30.21 in 10.0 mi Calm Calm - N/A   Clear
8:15 PM 21.2 °F - 17.6 °F 86% 30.21 in 10.0 mi Calm Calm - N/A   Clear
8:35 PM 21.2 °F - 17.6 °F 86% 30.22 in 10.0 mi Calm Calm - N/A   Clear
8:55 PM 21.2 °F 14.9 °F 17.6 °F 86% 30.23 in 10.0 mi NNE 4.6 mph - N/A   Clear
9:15 PM 23.0 °F - 19.4 °F 86% 30.24 in 10.0 mi Calm Calm - N/A   Clear
9:35 PM 21.2 °F 16.4 °F 19.4 °F 93% 30.25 in 10.0 mi South 3.5 mph - N/A   Clear
9:55 PM 23.0 °F 18.4 °F 19.4 °F 86% 30.23 in 10.0 mi NE 3.5 mph - N/A   Clear
10:15 PM 23.0 °F 18.4 °F 17.6 °F 80% 30.25 in 10.0 mi NW 3.5 mph - N/A   Clear
10:35 PM 23.0 °F - 19.4 °F 86% 30.26 in 10.0 mi Calm Calm - N/A   Scattered Clouds
10:55 PM 23.0 °F - 19.4 °F 86% 30.26 in 10.0 mi Calm Calm - N/A   Partly Cloudy
11:15 PM 21.2 °F - 19.4 °F 93% 30.28 in 10.0 mi Calm Calm - N/A   Scattered Clouds
11:35 PM 23.0 °F - 19.4 °F 86% 30.29 in 10.0 mi Calm Calm - N/A   Mostly Cloudy
11:55 PM 23.0 °F - 19.4 °F 86% 30.29 in 10.0 mi Calm Calm - N/A   Scattered Clouds